Showing default

YAM-6, 59126

Orbit data source: Space-Track

YAM-6, 59126 is a payload satellite owned by Loft Orbital (US) in SSO that was launched on Mon, 04 Mar 2024 UTC via an FALCON 9 launch vehicle from the Air Force Western Test Range (AFWTR). Payload-class satellites include a variety of spacecraft equipped with specific instruments for various scientific and technological missions. These include communications satellites like Starlink; space stations such as the ISS; scientific satellites like the Hubble; Earth observation satellites from companies like Planet Labs, Umbra, and HawkEye 360; GPS; miniature CubeSats for education and research; and military/defense satellites.

Loading next visibility...
Identifier
59126, 2024-043AE
Orbit
SSO
Country
Flag of USUS
Related business
Manufacturer
LeoStella
Mission
Operational Commercial Technology
Bus & Motor
YAM, Unknown motor
Mass
87 kg wet, 87 kg dry
Launch date (UTC)
2024-03-04 (2 years ago)
Launch vehicle
FALCON 9
Launch site
Air Force Western Test Range (AFWTR)
Object type
Payload
Rocket body
Debris
Shape & HBR
Box, 1.0 m
Radar Cross Section
1.500 m², Medium (>0.1 m² and < 1m²)

Expand to show TLE details & history
Last TLE update: 2 days ago

TLE from 2 days ago
0 YAM-6
1 59126U 24043AE  26171.37219972  .00007289  00000-0  20226-3 0  9994
2 59126  97.5572 312.5898 0007710 208.8035 151.2784 15.37203054127803
Epoch: 2026-06-20T08:55Z
TLE epoch observation values (Epoch: 2026-06-20T08:55:58.055Z)
Latitude
-0.00007°
Longitude
-89.98986°
Altitude
462.116 km
Speed
7.633 km/s
True Right ascension
20h 50m 21s
True Declination
0° 00' 00"
Sunlit
Object was in full shadow at epoch
Visualization orbit readout
Latitude
Unknown
Longitude
Unknown
Altitude
Unknown
Speed
Unknown
Apparent Right ascension
Unknown
Apparent Declination
Unknown
Sunlit
N/A
Visualization observer readout
Local Sidereal Time
21:45:16
Azimuth
Unknown
Elevation
Unknown
Doppler factor
Unknown
Orbital elements
Apogee altitude
456.6 km
Perigee altitude
446.069 km
Semi-major axis
6,829.471 km
Eccentricity
0.00077
Inclination
97.5572°
RAAN
312.5898°
Arg. of periapsis
208.8035°
True anomaly
151.32082°
Mean anomaly
151.2784°
Eccentric anomaly
151.29961°
Mean motion
3.84559 °/min
Orbital period
93.61 mins
BSTAR
0.00020226
Loading maneuver chart data...
Computing Atmospheric mass density...
Loading historical data...
Loading historical data...
Loading historical data...
Loading historical data...
Loading historical data...
Loading historical data...
Loading historical data...

Documentation

Showing up to 5 results
|